Location: Yamada Observatory
(36.7980°N, 119.2990°W)
Time: 23:08:59
(UTC-07:00)

Tiangong 2 - Visible Passes

Search period start: 18 July 2018 00:00
Search period end: 28 July 2018 00:00
Orbit: 386 x 394 km, 42.8° (Epoch: 18 July)

Date Brightness Start Highest point End Pass type
(mag) Time Alt. Az. Time Alt. Az. Time Alt. Az.
18 Jul 2.7 22:02:32 10° NW 22:05:26 31° N 22:06:37 23° NE visible
19 Jul 3.0 21:04:48 10° WNW 21:07:35 27° N 21:10:22 10° ENE visible
19 Jul 2.8 22:41:38 10° WNW 22:43:38 34° NW 22:43:38 34° NW visible
20 Jul 2.1 21:43:59 10° WNW 21:47:02 42° NNE 21:48:20 26° ENE visible
21 Jul 2.6 20:46:17 10° NW 20:49:13 32° N 20:52:07 10° ENE visible
21 Jul 2.1 22:23:05 10° WNW 22:25:22 42° W 22:25:22 42° W visible
22 Jul 1.2 21:25:22 10° WNW 21:28:32 69° NNE 21:30:06 27° E visible
23 Jul 2.3 22:04:40 10° W 22:07:11 32° SW 22:07:11 32° SW visible
24 Jul 1.2 21:06:47 10° WNW 21:09:57 62° SSW 21:11:59 19° SE visible
25 Jul 3.2 21:46:39 10° W 21:48:47 17° SW 21:49:10 16° SSW visible
26 Jul 2.5 20:48:22 10° W 20:51:13 30° SSW 20:54:03 10° SSE visible
